This is the latest recevied weather packets stored in our database for station/object XW7RMR. If no packets are shown the sender has not sent any weather packets the latest 10 day(s).
| Time | Temp. | Humidity | Pressure | Rain* | Wind** | Luminosity | Snow |
|---|---|---|---|---|---|---|---|
| 1777836891 | 27.78° C | 39% | 1008.8 hPa | 0 mm | - | 815 W/m² | - |
| 1777836587 | 27.78° C | 38% | 1008.9 hPa | 0 mm | - | 811 W/m² | - |
| 1777836283 | 28.33° C | 38% | 1008.9 hPa | 0 mm | - | 808 W/m² | - |
| 1777835979 | 28.33° C | 39% | 1009.1 hPa | 0 mm | - | 802 W/m² | - |
| 1777835677 | 27.78° C | 39% | 1009 hPa | 0 mm | - | 797 W/m² | - |
| 1777835373 | 27.78° C | 40% | 1009 hPa | 0 mm | - | 792 W/m² | - |
| 1777835071 | 27.22° C | 40% | 1009.1 hPa | 0 mm | - | 784 W/m² | - |
| 1777834767 | 27.22° C | 41% | 1009.3 hPa | 0 mm | - | 778 W/m² | - |
| 1777834464 | 27.22° C | 40% | 1009.3 hPa | 0 mm | - | 772 W/m² | - |
| 1777834163 | 26.67° C | 42% | 1009.3 hPa | 0 mm | - | 763 W/m² | - |
| 1777833860 | 26.67° C | 43% | 1009.4 hPa | 0 mm | - | 763 W/m² | - |
| 1777833556 | 26.11° C | 43% | 1009.5 hPa | 0 mm | - | 754 W/m² | - |
| 1777833253 | 26.67° C | 44% | 1009.4 hPa | 0 mm | - | 746 W/m² | - |
| 1777832950 | 26.11° C | 45% | 1009.4 hPa | 0 mm | - | 737 W/m² | - |
| 1777832649 | 26.11° C | 44% | 1009.4 hPa | 0 mm | - | 727 W/m² | - |
| 1777832345 | 26.11° C | 45% | 1009.6 hPa | 0 mm | - | 717 W/m² | - |
| 1777832042 | 25.56° C | 45% | 1009.5 hPa | 0 mm | - | 706 W/m² | - |
| 1777831739 | 25.56° C | 45% | 1009.6 hPa | 0 mm | - | 697 W/m² | - |
| 1777831437 | 25° C | 46% | 1009.7 hPa | 0 mm | - | 686 W/m² | - |
| 1777831133 | 25° C | 47% | 1009.7 hPa | 0 mm | - | 675 W/m² | - |
| 1777830831 | 25° C | 48% | 1009.7 hPa | 0 mm | - | 664 W/m² | - |
| 1777830527 | 24.44° C | 50% | 1009.7 hPa | 0 mm | - | 652 W/m² | - |
| 1777830225 | 24.44° C | 50% | 1009.8 hPa | 0 mm | - | 641 W/m² | - |
| 1777829925 | 24.44° C | 49% | 1009.9 hPa | 0 mm | - | 628 W/m² | - |
| 1777829622 | 25° C | 48% | 1009.9 hPa | 0 mm | - | 618 W/m² | - |
* Rain latest hour (hover to see other rain measurements)
** Current wind speed in m/s (hover to see current wind gust speed)